Terminal Aerodrome Forecast
Issued by NWS Paducah, KY

Home | Current Version | Previous Version | Text Only | Print | Product List | Glossary On
Versions: 1 2 3 4 5 6 7 8 9 10 11 12 13
000
FTUS43 KPAH 090500
TAFEVV
TAF
KEVV 090520Z 0906/1006 VRB02KT P6SM SCT070
     FM091500 29007KT P6SM SCT040
     FM100000 VRB02KT P6SM SKC=

USA.gov is the U.S. government's official web portal to all federal, state and local government web resources and services.